Terminal Aerodrome Forecast
Issued by NWS

Home | Current Version | Previous Version | Text Only | Print | Product List | Glossary On
Versions: 1 2 3 4 5 6 7 8 9 10 11 12 13 14 15 16 17 18 19 20 21 22 23 24 25 26 27 28
000
FTUS44 KFWD 230900 AAA
TAFFTW
TAF AMD
KFTW 230903Z 2309/2406 07008KT P6SM SKC
     FM240200 08005KT P6SM VCTS SCT060CB
     FM240400 VRB03KT P6SM FEW060 BKN150=

USA.gov is the U.S. government's official web portal to all federal, state and local government web resources and services.